AZA895 EDDN-EDDM

Flight info

Callsign AZA895
Flight time 0h 22m
Altitude 16000
Route BOLSI1C BOLSI Y167 AKANU/N0418F150 L603 RENLO T466 ROKIL ROKIL1A
Aircraft A359/H-SDE2E3GHIJ1J3J4J5LM1ORWXY/LB1D1

Departure

Time 2026-05-01 10:19
Airport Nuremberg Airport (EDDN)

Arrival

Time 2026-05-01 10:41
Airport Munich Airport (EDDM)
Time Latitude Longitude Altitude Speed Heading
2026-05-01 10:07 49.49514 11.07316 1033 ft 0 kts
2026-05-01 10:13 49.49551 11.07324 1034 ft 10 kts
2026-05-01 10:13 49.49602 11.07284 1036 ft 8 kts 308°
2026-05-01 10:14 49.49694 11.07229 1038 ft 6 kts 355°
2026-05-01 10:14 49.49732 11.07197 1038 ft 7 kts 306°
2026-05-01 10:14 49.49748 11.07102 1037 ft 14 kts 278°
2026-05-01 10:14 49.49766 11.06905 1033 ft 22 kts 279°
2026-05-01 10:15 49.49788 11.06665 1030 ft 24 kts 279°
2026-05-01 10:15 49.49813 11.06417 1033 ft 23 kts 278°
2026-05-01 10:15 49.49838 11.06174 1032 ft 22 kts 279°
2026-05-01 10:15 49.49852 11.06046 1034 ft 7 kts 283°
2026-05-01 10:16 49.49869 11.06002 1035 ft 4 kts 310°
2026-05-01 10:16 49.49893 11.05978 1036 ft 0 kts 336°
2026-05-01 10:16 49.49903 11.05971 1036 ft 2 kts 337°
2026-05-01 10:17 49.49920 11.05961 1036 ft 3 kts 338°
2026-05-01 10:17 49.49941 11.05949 1036 ft 4 kts 339°
2026-05-01 10:17 49.49988 11.05928 1034 ft 9 kts 354°
2026-05-01 10:18 49.50042 11.06060 1035 ft 11 kts 98°
2026-05-01 10:18 49.49997 11.06513 1034 ft 75 kts 99°
2026-05-01 10:18 49.49890 11.07589 1048 ft 126 kts 98°
2026-05-01 10:19 49.49728 11.09139 1269 ft 154 kts 100°
2026-05-01 10:19 49.49535 11.10739 2259 ft 153 kts 103°
2026-05-01 10:19 49.49380 11.12393 3148 ft 162 kts 94°
2026-05-01 10:20 49.48443 11.15756 4865 ft 197 kts 149°
2026-05-01 10:20 49.47057 11.16149 5789 ft 215 kts 181°
2026-05-01 10:20 49.45504 11.15912 6583 ft 233 kts 182°
2026-05-01 10:20 49.43832 11.15611 7254 ft 251 kts 183°
2026-05-01 10:21 49.42037 11.15275 7964 ft 269 kts 183°
2026-05-01 10:21 49.38160 11.14559 9735 ft 287 kts 183°
2026-05-01 10:21 49.36161 11.14201 10666 ft 292 kts 183°
2026-05-01 10:22 49.31925 11.13461 11949 ft 322 kts 183°
2026-05-01 10:22 49.27228 11.12761 12992 ft 356 kts 182°
2026-05-01 10:23 49.24704 11.12444 13445 ft 373 kts 182°
2026-05-01 10:23 49.19310 11.11773 14154 ft 404 kts 182°
2026-05-01 10:23 49.16453 11.11402 14389 ft 420 kts 182°
2026-05-01 10:24 49.10515 11.10606 15188 ft 433 kts 182°
2026-05-01 10:24 49.04486 11.09786 16256 ft 438 kts 182°
2026-05-01 10:25 48.98444 11.08982 16430 ft 439 kts 182°
2026-05-01 10:25 48.92364 11.08187 16399 ft 438 kts 182°
2026-05-01 10:26 48.89326 11.07785 16415 ft 439 kts 182°
2026-05-01 10:26 48.86285 11.07379 16412 ft 439 kts 182°
2026-05-01 10:26 48.80185 11.06553 16409 ft 443 kts 182°
2026-05-01 10:27 48.74066 11.05736 16409 ft 439 kts 182°
2026-05-01 10:27 48.68047 11.04961 15248 ft 427 kts 182°
2026-05-01 10:28 48.65106 11.04588 14195 ft 423 kts 182°
2026-05-01 10:28 48.59449 11.03866 13171 ft 387 kts 182°
2026-05-01 10:28 48.56847 11.03518 13022 ft 364 kts 182°
2026-05-01 10:29 48.52073 11.02856 12802 ft 328 kts 182°
2026-05-01 10:29 48.49855 11.02535 12686 ft 313 kts 182°
2026-05-01 10:30 48.46031 11.04150 12486 ft 277 kts 137°
2026-05-01 10:30 48.43223 11.07826 12200 ft 259 kts 134°
2026-05-01 10:31 48.40596 11.11332 11952 ft 246 kts 134°
2026-05-01 10:31 48.38087 11.14670 11628 ft 237 kts 136°
2026-05-01 10:32 48.35659 11.17898 11168 ft 231 kts 134°
2026-05-01 10:32 48.34449 11.19509 10808 ft 233 kts 134°
2026-05-01 10:32 48.32326 11.23025 10252 ft 222 kts 107°
2026-05-01 10:33 48.32340 11.27502 9602 ft 214 kts 82°
2026-05-01 10:33 48.32693 11.31725 9284 ft 195 kts 83°
2026-05-01 10:34 48.32856 11.33731 9018 ft 193 kts 83°
2026-05-01 10:34 48.33019 11.35727 8756 ft 192 kts 83°
2026-05-01 10:34 48.33180 11.37714 8488 ft 192 kts 83°
2026-05-01 10:35 48.33513 11.41844 7551 ft 205 kts 84°
2026-05-01 10:35 48.33683 11.43968 7204 ft 201 kts 84°
2026-05-01 10:35 48.33849 11.46017 6777 ft 194 kts 84°
2026-05-01 10:35 48.34006 11.47965 6407 ft 181 kts 84°
2026-05-01 10:36 48.34303 11.51689 5389 ft 177 kts 84°
2026-05-01 10:36 48.34447 11.53510 4933 ft 176 kts 84°
2026-05-01 10:36 48.34592 11.55327 4456 ft 175 kts 84°
2026-05-01 10:37 48.34688 11.56522 4234 ft 172 kts 85°
2026-05-01 10:37 48.34948 11.59808 3775 ft 145 kts 84°
2026-05-01 10:37 48.35061 11.61247 3598 ft 133 kts 84°
2026-05-01 10:38 48.35165 11.62608 3427 ft 131 kts 83°
2026-05-01 10:38 48.35274 11.63972 3209 ft 130 kts 84°
2026-05-01 10:38 48.35379 11.65304 3063 ft 129 kts 82°
2026-05-01 10:38 48.35484 11.66648 2857 ft 128 kts 85°
2026-05-01 10:39 48.35589 11.67970 2691 ft 127 kts 84°
2026-05-01 10:39 48.35692 11.69296 2533 ft 128 kts 84°
2026-05-01 10:39 48.35797 11.70622 2333 ft 127 kts 84°
2026-05-01 10:39 48.35902 11.71950 2158 ft 129 kts 85°
2026-05-01 10:40 48.36004 11.73275 1965 ft 127 kts 82°
2026-05-01 10:40 48.36111 11.74601 1782 ft 128 kts 83°
2026-05-01 10:40 48.36217 11.75931 1631 ft 127 kts 84°
2026-05-01 10:40 48.36315 11.77260 1502 ft 127 kts 84°
2026-05-01 10:41 48.36406 11.78459 1487 ft 97 kts 80°
2026-05-01 10:41 48.36454 11.79159 1481 ft 36 kts 98°
2026-05-01 10:41 48.36321 11.79704 1478 ft 13 kts 113°
2026-05-01 10:42 48.36309 11.79745 1487 ft 2 kts 112°
2026-05-01 10:42 48.36301 11.79773 1484 ft 0 kts 112°
2026-05-01 10:42 48.36301 11.79775 1484 ft 0 kts 112°
2026-05-01 10:43 48.36300 11.79776 1485 ft 1 kts 112°
2026-05-01 10:43 48.36285 11.79832 1480 ft 12 kts 112°
2026-05-01 10:43 48.36258 11.79908 1483 ft 4 kts 147°
2026-05-01 10:43 48.36251 11.79909 1485 ft 1 kts 182°
2026-05-01 10:44 48.36245 11.79883 1484 ft 7 kts 244°
2026-05-01 10:44 48.36235 11.79807 1484 ft 9 kts 277°
2026-05-01 10:44 48.36231 11.79694 1487 ft 13 kts 264°
2026-05-01 10:44 48.36219 11.79539 1487 ft 18 kts 263°
2026-05-01 10:45 48.36204 11.79345 1487 ft 19 kts 263°
2026-05-01 10:45 48.36189 11.79144 1487 ft 20 kts 263°
2026-05-01 10:45 48.36173 11.78940 1482 ft 20 kts 263°
2026-05-01 10:45 48.36156 11.78729 1482 ft 21 kts 263°
2026-05-01 10:46 48.36138 11.78500 1477 ft 23 kts 263°
2026-05-01 10:46 48.36120 11.78252 1482 ft 24 kts 264°
2026-05-01 10:46 48.36100 11.78004 1479 ft 24 kts 263°
2026-05-01 10:46 48.36085 11.77810 1487 ft 14 kts 263°
2026-05-01 10:47 48.36083 11.77788 1480 ft 3 kts 263°
2026-05-01 10:47 48.36079 11.77738 1486 ft 7 kts 263°
2026-05-01 10:47 48.36057 11.77665 1482 ft 8 kts 214°
2026-05-01 10:47 48.36001 11.77668 1483 ft 9 kts 175°
2026-05-01 10:48 48.35962 11.77675 1481 ft 0 kts 173°
2026-05-01 10:48 48.35960 11.77675 1481 ft 0 kts 173°
2026-05-01 10:48 48.35947 11.77677 1485 ft 6 kts 173°
2026-05-01 10:48 48.35894 11.77687 1485 ft 10 kts 173°
2026-05-01 10:49 48.35818 11.77696 1487 ft 11 kts 175°
2026-05-01 10:49 48.35738 11.77716 1484 ft 12 kts 172°
2026-05-01 10:49 48.35650 11.77729 1483 ft 13 kts 172°
2026-05-01 10:49 48.35559 11.77748 1473 ft 14 kts 172°
2026-05-01 10:50 48.35463 11.77763 1485 ft 14 kts 173°
2026-05-01 10:50 48.35414 11.77771 1487 ft 0 kts 171°
2026-05-01 10:50 48.35389 11.77777 1475 ft 8 kts 171°
2026-05-01 10:50 48.35336 11.77830 1487 ft 10 kts 102°
2026-05-01 10:51 48.35339 11.77939 1487 ft 11 kts 85°
2026-05-01 10:51 48.35347 11.78057 1478 ft 12 kts 82°
2026-05-01 10:51 48.35337 11.78173 1476 ft 7 kts 128°
2026-05-01 10:51 48.35321 11.78198 1483 ft 1 kts 137°
2026-05-01 10:52 48.35272 11.78208 1487 ft 10 kts 209°
2026-05-01 10:52 48.35200 11.78187 1477 ft 11 kts 174°
2026-05-01 10:52 48.35120 11.78201 1487 ft 12 kts 173°
2026-05-01 10:52 48.35083 11.78207 1481 ft 0 kts 173°
2026-05-01 10:53 48.35045 11.78214 1481 ft 11 kts 173°
2026-05-01 10:53 48.34998 11.78232 1477 ft 7 kts 143°
2026-05-01 10:53 48.34994 11.78318 1484 ft 9 kts 81°
2026-05-01 10:53 48.34996 11.78351 1487 ft 4 kts 85°
2026-05-01 10:54 48.34997 11.78364 1487 ft 0 kts 84°
2026-05-01 11:02 53.05282 8.77864 21 ft 0 kts 45°